User: anonymous   Login
Location: Cape Cod Imaging Station
(41.7417°N, 70.1583°W)
Time: 18:31:07
(UTC-04:00)
Language:

Cosmos 1508 Rocket - Orbit

View from above orbital plane
View from above orbital plane
View from above satellite
View from above satellite

Ground track
Ground track

The orbit data is extracted from the following two-line orbital elements,

1 14484U 83111B   15150.14955877  .00146383  58384-5  50419-3 0  9993
2 14484 082.8179 343.9244 0078264 077.4275 034.0535 15.84494124626305
Epoch (UTC): 30 May 2015 03:35:21
Eccentricity: 0.0078264
inclination: 82.8179°
perigee height: 265 km
apogee height: 370 km
right ascension of ascending node: 343.9244°
argument of perigee: 77.4275°
revolutions per day: 15.84494124
mean anomaly at epoch: 34.0535°
orbit number at epoch: 62630

The dashed part of the orbit path shows where the satellite is in the earth's shadow,  

DLR